This is the latest recevied weather packets stored in our database for station/object CE3SUR-17. If no packets are shown the sender has not sent any weather packets the latest 10 day(s).
| Time | Temp. | Humidity | Pressure | Rain* | Wind** | Luminosity | Snow |
|---|---|---|---|---|---|---|---|
| 1777910332 | 25° C | 40% | 958.3 hPa | - | - | - | - |
| 1777908531 | 23.89° C | 40% | 958.7 hPa | - | - | - | - |
| 1777906732 | 22.78° C | 41% | 958.7 hPa | - | - | - | - |
| 1777905241 | 21.11° C | 41% | 958.9 hPa | - | - | - | - |
| 1777904931 | 21.11° C | 41% | 958.9 hPa | - | - | - | - |
| 1777903131 | 19.44° C | 42% | 958.9 hPa | - | - | - | - |
| 1777901330 | 18.33° C | 42% | 959 hPa | - | - | - | - |
| 1777899824 | 17.78° C | 42% | 958.8 hPa | - | - | - | - |
| 1777897743 | 17.22° C | 43% | 958.7 hPa | - | - | - | - |
| 1777897730 | 17.22° C | 43% | 958.7 hPa | - | - | - | - |
| 1777895930 | 17.22° C | 43% | 958.6 hPa | - | - | - | - |
| 1777894130 | 17.78° C | 43% | 958.5 hPa | - | - | - | - |
| 1777890529 | 17.78° C | 43% | 958.5 hPa | - | - | - | - |
| 1777886930 | 18.33° C | 43% | 958.2 hPa | - | - | - | - |
| 1777885130 | 18.33° C | 43% | 958.1 hPa | - | - | - | - |
| 1777883330 | 18.33° C | 43% | 958 hPa | - | - | - | - |
| 1777881530 | 18.89° C | 43% | 958.4 hPa | - | - | - | - |
| 1777879729 | 18.89° C | 43% | 958.5 hPa | - | - | - | - |
| 1777877929 | 19.44° C | 43% | 958.8 hPa | - | - | - | - |
| 1777876129 | 20° C | 43% | 958.9 hPa | - | - | - | - |
| 1777874329 | 20° C | 42% | 959.4 hPa | - | - | - | - |
| 1777872529 | 20.56° C | 42% | 959.8 hPa | - | - | - | - |
| 1777870728 | 20.56° C | 42% | 959.8 hPa | - | - | - | - |
| 1777868928 | 21.11° C | 43% | 959.8 hPa | - | - | - | - |
| 1777867129 | 21.67° C | 42% | 959.7 hPa | - | - | - | - |
* Rain since midnight (hover to see other rain measurements)
** Current wind speed in m/s (hover to see current wind gust speed)